Regional Weather Roundup
Issued by NWS Binghamton, NY

Home | Current Version | Previous Version | Text Only | Print | Product List | Glossary On
Versions: 1 2 3 4 5 6 7 8 9 10 11 12 13 14 15 16 17 18 19 20 21 22 23 24 25 26 27 28 29 30 31 32 33 34 35 36 37 38 39 40 41 42 43 44 45 46 47 48 49 50
140
ASUS41 KBGM 250910
RWRBGM

REGIONAL WEATHER ROUNDUP
NATIONAL WEATHER SERVICE BINGHAMTON NY
500 AM EDT WED MAY 25 2016

Note: "fair" indicates few or no clouds below 12,000 feet with no
significant weather and/or obstructions to visibility.

* = Station(s) that does not report precipitation, such as rain,
snow, etc, also no thunder or fog.

NYZ009-015>018-022>025-036-037-044>046-055>057-062-251000
...Central New York...

CITY           SKY/WX    TMP DP  RH WIND       PRES   REMARKS
Binghamton     CLEAR     55  40  56 SW7       30.05S
Cortland       FAIR      43  41  93 CALM      30.06R
Dansville      CLEAR     52  42  69 SE15      30.06R
Elmira         CLEAR     44  40  85 W3        30.06R
Ithaca         CLEAR     45  42  89 E6        30.06R
Hamilton       CLEAR     46  41  81 SE3       30.05R
Hornell        CLEAR     46  41  81 SE6       30.12R
Monticello     CLEAR     46  45  93 CALM      30.07R
Norwich        CLEAR     43  39  87 CALM      30.07S
Oneonta        CLEAR     52  36  54 CALM      30.05S
Penn Yan       CLEAR     62  37  39 SW9       30.04R
Rome           PTCLDY    46  41  82 CALM      30.03R
Sidney         CLEAR     43  43 100 CALM      30.07R
Syracuse       PTCLDY    48  44  86 CALM      30.00R
$$

PAZ038>040-043-044-047-048-072-251000
...Northeast Pennsylvania...

CITY           SKY/WX    TMP DP  RH WIND       PRES   REMARKS
Hazleton       CLEAR     45  43  93 CALM      30.12R
Scranton       CLEAR     51  42  71 E3        30.07R
$$
&&
KEY
WCI = Wind Chill Index
VSB = Visibility
HX  = Heat Index
$$




USA.gov is the U.S. government's official web portal to all federal, state and local government web resources and services.